Regional Weather Roundup
Issued by NWS Grand Forks, ND

Home | Current Version | Previous Version | Graphics & Text | Print | Product List | Glossary On
Versions: 1 2 3 4 5 6 7 8 9 10 11 12 13 14 15 16 17 18 19 20 21 22 23 24 25 26 27 28 29 30 31 32 33 34 35 36 37 38 39 40 41 42 43 44 45 46 47 48 49 50
000
ASUS43 KFGF 272331
RWRFGF
PRAIRIE TO PINES  WEATHER ROUNDUP
NATIONAL WEATHER SERVICE EASTERN NORTH DAKOTA/GRAND FORKS ND
600 PM CDT MON JUL 27 2015

 **SATELLITE DATA USED TO AUGMENT SKY COVER AT AUTOMATED STATIONS**
 *****  WEATHER ACROSS EASTERN NORTH DAKOTA  *****

CITY           SKY/WX    TMP DP  RH WIND       PRES   REMARKS
GRAND FORKS    MOSUNNY   86  71  60 SE20G26   29.76F HX  91
GRAND FRKS AFB MOSUNNY   86  72  63 SE17G24   29.76F HX  92
GRAND FRKS NWS   N/A     86 N/A N/A SE12        N/A
DEVILS LAKE    MOSUNNY   84  70  61 SE18G24   29.72S
FARGO          SUNNY     89  69  51 SE15G24   29.76F HX  93
WAHPETON ARPT  CLEAR     86  68  54 SE16      29.79S
$$

 ***** WEATHER ACROSS CENTRAL AND WESTERN NORTH DAKOTA  *****

CITY           SKY/WX    TMP DP  RH WIND       PRES   REMARKS
BISMARCK       SUNNY     92  66  42 S24G30    29.64F HX  94
MINOT          PTSUNNY   89  66  46 SE15      29.64F HX  91
JAMESTOWN      MOSUNNY   86  75  69 SE16      29.72F HX  95
MINOT AFB      MOSUNNY   88  71  56 SE13      29.63F HX  93
GARRISON         N/A     86  70  58 SE21G26   29.63F HX  90
WILLISTON      PTSUNNY   90  64  42 E13G22    29.57F HX  91
DICKINSON      PTSUNNY   86  64  47 SE17G25   29.61F
HETTINGER      LGT RAIN  84  63  49 S12       29.68R
$$

 *****  OTHER AIRPORT OBSERVATIONS IN OUR AREA  *****

CITY           SKY/WX    TMP DP  RH WIND       PRES   REMARKS
WALHALLA       FAIR      84  73  70 MISG      29.75F HX  91
GRAFTON AIRPOR FAIR      84  73  70 SE17G23   29.76F HX  91
VALLEY CITY AR LGT RAIN  86  75  70 SE18G24   29.75F HX  95
CANDO          FAIR      81  72  74 SE16G28   29.74F
CAVALIER APRT  FAIR      84  72  65 SE12G22   29.75F
GWINNER          N/A     82  79  89 SE16      29.76F HX  93
ROLLA            N/A     79  70  73 SE17G28   29.76S
 ***** THE ABOVE OBSERVATIONS ARE NON NWS ARE NOT QUALITY
       CONTROLLED AND MAY MIS-REPORT RAIN FOR SNOW...
$$

  *****  WEATHER ACROSS NORTHERN MINNESOTA  *****

CITY           SKY/WX    TMP DP  RH WIND       PRES   REMARKS
FLAG ISLAND    SUNNY     82  72  69 S8        29.83F
WARROAD        MOSUNNY   88  73  62 SE12      29.84S HX  96
ROSEAU         SUNNY     84  73  70 S9        29.82F HX  91
HALLOCK        SUNNY     84  72  65 SE15      29.76F
THF RVR FALLS  PTSUNNY   81  72  74 S8        29.81F
BAUDETTE       SUNNY     87  66  49 S10       29.86F
WASKISH        MOSUNNY   84  70  61 SE10      29.86F
CROOKSTON      PTSUNNY   84  72  65 SE15      29.79F
STEPHEN NDAWN    N/A     84  72  65 S14         N/A
GREENBUSH NDAW   N/A     84  72  65 S9          N/A
$$
  *****  WEATHER ACROSS CENTRAL AND WEST MINNESOTA  *****

CITY           SKY/WX    TMP DP  RH WIND       PRES   REMARKS
FOSSTON        PTSUNNY   81  72  74 SE8       29.84F
BEMIDJI        PTSUNNY   82  70  66 SE10G18   29.87S
PARK RAPIDS    MOSUNNY   87  67  51 S20       29.86F HX  90
ELBOW LAKE     FAIR      83  73  71 SE15G24   29.82F
WADENA         MOSUNNY   84  68  58 S14       29.86S
DETROIT LAKES  PTSUNNY   86  68  54 S15       29.84F
MOORHEAD       SUNNY     88  72  58 SE13      29.78F HX  94
FERGUS FALLS   MOSUNNY   86  72  62 SE14G22   29.80F HX  92
MORRIS MN      MOSUNNY   84  73  70 SE16      29.82F HX  91
STAPLES        SUNNY     84  66  54 S12       29.87F
$$
  *****  WEATHER ELSEWHERE ACROSS MINNESOTA  *****

CITY           SKY/WX    TMP DP  RH WIND       PRES   REMARKS
DULUTH         MOSUNNY   82  63  52 SE8       29.95S
INTRNTL FALLS  PTSUNNY   83  65  54 VRB3      29.88F
ELY            SUNNY     84  54  34 S9        29.94S
CLOQUET        MOSUNNY   82  64  54 S7        29.94S
WHEATON        SUNNY     82  73  74 SE18G24   29.80F
BRAINERD       MOSUNNY   82  70  66 SE12      29.89F
HIBBING        MOSUNNY   85  64  49 SE13      29.92F
ALEXANDRIA     MOSUNNY   85  71  63 S14G23    29.88F HX  90
SAINT CLOUD    MOSUNNY   85  72  65 S15G22    29.88S HX  91
MINNEAPOLIS    PTSUNNY   84  71  65 SE12      29.90S
$$

  *****  WEATHER ACROSS SOUTH DAKOTA  *****

CITY           SKY/WX    TMP DP  RH WIND       PRES   REMARKS
SIOUX FALLS    MOSUNNY   85  71  63 S17       29.80F HX  90
BROOKINGS      SUNNY     84  70  61 SE17      29.83S
WATERTOWN      SUNNY     86  66  51 SE14      29.80F
HURON          SUNNY     87  74  64 SE14      29.73F HX  95
SISSETON         N/A     84  75  74 SE17      29.76F HX  92
ABERDEEN       SUNNY     90  73  57 S18G26    29.72F HX  98
MITCHELL       SUNNY     87  77  72 S15G25    29.74F HX  99
PIERRE         SUNNY     94  66  39 SE29G38   29.62F HX  97
MOBRIDGE       SUNNY     94  69  44 SE24G35   29.64F HX  99
RAPID CITY     MOSUNNY   86  63  45 SE8       29.63F THUNDER
$$

  *****  SOME WEATHER IN NEARBY STATES *****

CITY           SKY/WX    TMP DP  RH WIND       PRES   REMARKS
GLASGOW MT     PTSUNNY   79  60  52 N16       29.60F
GREAT FALLS MT CLOUDY    55  50  83 W5        29.97R
CHEYENNE WY    MOSUNNY   89  46  22 S13G20    29.88F
SCOTTSBLUFF NE MOSUNNY   94  56  27 S16       29.71F HX  92
OMAHA NE       PTSUNNY   87  77  72 SE16      29.85R HX  99
DES MOINES IA  CLOUDY    75  69  81 SE12      29.93F
DAVENPORT IA   CLOUDY    82  72  71 SE5       29.97R
CHICAGO IL     PTSUNNY   84  63  49 E12       29.97S
EAU CLAIRE WI  PTSUNNY   83  65  54 SE12      29.94F
LA CROSSE WI   PTSUNNY   85  69  58 SE12      29.93F
$$

  *****  SOME NATIONAL WEATHER *****

CITY           SKY/WX    TMP DP  RH WIND       PRES   REMARKS
LA GUARDIA NY  PTSUNNY   80  68  66 S12       29.98R
RALEIGH NC     PTSUNNY   87  72  60 SE8       29.97S HX  93
ATLANTA GA     CLOUDY    83  71  67 NW13      29.97F
NEW ORLEANS LA PTSUNNY   89  72  56 S13       29.93S HX  96
OKLAHOMA CITY  MOSUNNY   94  69  44 S10       29.88F HX  99
ALBUQUERQUE NM PTSUNNY   91  45  20 SW10      30.04F
SALT LAKE CITY MOSUNNY   76  42  29 N12       30.04S
LOS ANGELES CA MOSUNNY   74  60  61 W13       29.89F
BOISE ID       MOSUNNY   74  32  21 W21G29    30.05S
SEATTLE WA     PTSUNNY   73  47  39 CALM      30.22S
$$

*** WEATHER ACROSS MANITOBA...SASKATCHEWAN AND ONTARIO ***
                ***ONTARIO***

CITY           SKY/WX    TMP DP  RH WIND       PRES   REMARKS
GERALDTON      MOSUNNY   86  64  48 W9        29.92S
THUNDER BAY    MOSUNNY   88  61  40 S10       29.93F
SIOUX LOOKOUT  PTSUNNY   86  61  42 W3        29.90S
TORONTO        PTSUNNY   88  59  37 S5        29.96F
BIG TROUT LK   SUNNY     82  57  42 NW10      29.79R
PICKLE LAKE    PTSUNNY   88  64  45 SW9       29.85F
DRYDEN         SUNNY     88  57  35 SW12      29.90S
KENORA         MOSUNNY   86  64  48 S7        29.88F
$$
                *** MANITOBA***

CITY           SKY/WX    TMP DP  RH WIND       PRES   REMARKS
BRANDON        PTSUNNY   86  68  54 SE13G20   29.77S
DAUPHIN        CLOUDY    75  63  64 N17G23    29.82F
ISLAND LAKE    PTSUNNY   81  57  44 W7        29.85
PILOT MOUND      N/A     81  72  74 SE15G23     N/A
THE PAS        CLOUDY    73  54  49 SW6       29.88F
THOMPSON       PTSUNNY   77  52  41 W10       29.82R
WINNIPEG       MOSUNNY   84  70  61 S15       29.78S
LYNN LAKE      MOSUNNY   75  48  38 W5        29.81R
CHURCHILL      PTSUNNY   68  64  88 S7        29.68S
GILLAM         MOSUNNY   77  61  57 W9        29.78S
$$
                ***SASKATCHEWAN***

CITY           SKY/WX    TMP DP  RH WIND       PRES   REMARKS
ESTEVAN        PTSUNNY   86  70  58 E17G28    29.65F HX  90
KINDERSLEY     CLOUDY    61  59  94 N10       29.86S
LLOYDMINSTER   CLOUDY    66  55  68 NW6       29.90F
PRINCE ALBERT  LGT RAIN  68  57  68 CALM      29.88
REGINA         PTSUNNY   70  55  60 NE15G22   29.74R
YORKTON        LGT RAIN  66  59  77 NE14      29.78F
N. BATTLEFORD  LGT RAIN  59  55  88 NE10      29.91F
LA RONGE       CLOUDY    75  50  41 SE6       29.85S
SASKATOON      LGT RAIN  63  61  94 N5        29.88F
SWIFT CURRENT  LGT RAIN  63  61  94 N8        29.81S
$$
NOTE: THESE ARE AUTOMATED STATIONS WITH LIMITED QUALITY CONTROL
      "FAIR" INDICATES FEW OR NO CLOUDS BELOW 12,000 FEET WITH NO
      SIGNIFICANT WEATHER AND/OR OBSTRUCTIONS TO VISIBILITY.
      SKY/WX - SKY CONDITION AND SIGNIFICANT WEATHER.
      TMP - AIR TEMPERATURE.    DP   - DEWPOINT TEMPERATURE.
      RH  - RELATIVE HUMIDITY.  PRES - PRESSURE.
      HX  - HEAT INDEX.         WCI  - WIND CHILL INDEX.
$


USA.gov is the U.S. government's official web portal to all federal, state and local government web resources and services.